Weather History for KMLC - February, 2013

Change the Weather History Date:

Thursday, February 28, 2013

  Actual Average Record
Temperature  
Mean Temperature 41 °F -  
Max Temperature 52 °F 59 °F 83 °F (1980)
Min Temperature 30 °F 38 °F 11 °F (1962)
Degree Days  
Heating Degree Days 24    
Moisture  
Dew Point 27 °F    
Average Humidity 63    
Maximum Humidity 82    
Minimum Humidity 38    
Precipitation  
Precipitation 0.00 in - - ()
Sea Level Pressure  
Sea Level Pressure 30.21 in    
Wind  
Wind Speed 8 mph (NW)    
Max Wind Speed 14 mph    
Max Gust Speed 22 mph    
Visibility 10 miles    
Events      
Averages and records for this station are not official NWS values.
T = Trace of Precipitation, MM = Missing Value Source: NWS Daily Summary

Daily Weather History Graph

Daily Weather History Graph

Search for Another Location

Airport or City:

Trip Planner

Search our weather history database for the weather conditions in past years. The results will help you decide how hot, cold, wet, or windy it might be!

Date:

Astronomy

Feb. 28, 2013 Rise Set
Actual Time 6:53 AM CST 6:18 PM CST
Civil Twilight 6:27 AM CST 6:43 PM CST
Nautical Twilight 5:58 AM CST 7:13 PM CST
Astronomical Twilight 5:29 AM CST 7:42 PM CST
Moon 9:35 PM CST (2/28) 8:12 AM CST (2/28)
Length of Visible Light 12h 15m
Length of Day
11h 24m
Waning Gibbous, 90% of the Moon is Illuminated
Feb 28
Waning Gibbous
Mar 4
Last Quarter
Mar 11
New
Mar 19
First Quarter
Mar 27
Full

Hourly Weather History & Observations

Time (CST) Temp. Windchill Dew Point Humidity Pressure Visibility Wind Dir Wind Speed Gust Speed Precip Events Conditions
12:53 AM 34.0 °F 28.0 °F 26.1 °F 73% 30.19 in 10.0 mi NW 6.9 mph - N/A   Clear
1:53 AM 33.1 °F 26.9 °F 26.1 °F 75% 30.20 in 10.0 mi WNW 6.9 mph - N/A   Clear
2:53 AM 33.1 °F 26.9 °F 26.1 °F 75% 30.19 in 10.0 mi NW 6.9 mph - N/A   Mostly Cloudy
3:53 AM 32.0 °F 24.2 °F 26.1 °F 79% 30.18 in 10.0 mi NW 9.2 mph - N/A   Partly Cloudy
4:53 AM 30.9 °F 25.2 °F 26.1 °F 82% 30.20 in 10.0 mi WNW 5.8 mph - N/A   Clear
5:53 AM 30.9 °F 26.2 °F 26.1 °F 82% 30.22 in 10.0 mi WNW 4.6 mph - N/A   Clear
6:53 AM 30.0 °F 23.2 °F 25.0 °F 82% 30.22 in 10.0 mi WNW 6.9 mph - N/A   Clear
7:53 AM 32.0 °F 25.6 °F 26.1 °F 79% 30.25 in 10.0 mi WNW 6.9 mph - N/A   Clear
8:53 AM 36.0 °F 28.0 °F 28.0 °F 73% 30.25 in 10.0 mi NW 11.5 mph - N/A   Scattered Clouds
9:53 AM 41.0 °F 35.2 °F 28.0 °F 60% 30.24 in 10.0 mi NNW 9.2 mph - N/A   Clear
10:53 AM 44.1 °F 38.1 °F 27.0 °F 51% 30.24 in 10.0 mi NW 11.5 mph 21.9 mph N/A   Scattered Clouds
11:53 AM 46.0 °F 40.6 °F 27.0 °F 47% 30.24 in 10.0 mi WNW 11.5 mph 19.6 mph N/A   Scattered Clouds
12:53 PM 48.9 °F - 28.0 °F 44% 30.21 in 10.0 mi WNW 10.4 mph 18.4 mph N/A   Scattered Clouds
1:53 PM 50.0 °F - 27.0 °F 41% 30.18 in 10.0 mi NW 13.8 mph - N/A   Clear
2:53 PM 51.1 °F - 27.0 °F 39% 30.17 in 10.0 mi NW 11.5 mph - N/A   Clear
3:53 PM 52.0 °F - 27.0 °F 38% 30.16 in 10.0 mi NNW 13.8 mph 21.9 mph N/A   Partly Cloudy
4:53 PM 50.0 °F - 27.0 °F 41% 30.16 in 10.0 mi NNW 9.2 mph 20.7 mph N/A   Mostly Cloudy
5:53 PM 48.0 °F - 25.0 °F 41% 30.17 in 10.0 mi NNW 12.7 mph - N/A   Scattered Clouds
6:53 PM 44.1 °F 39.5 °F 27.0 °F 51% 30.19 in 10.0 mi NNW 8.1 mph - N/A   Partly Cloudy
7:53 PM 42.1 °F 37.7 °F 28.9 °F 60% 30.20 in 10.0 mi NNW 6.9 mph - N/A   Partly Cloudy
8:53 PM 39.0 °F 33.4 °F 30.0 °F 70% 30.22 in 10.0 mi NNE 8.1 mph - N/A   Partly Cloudy
9:53 PM 37.4 °F 32.1 °F 28.4 °F 70% 30.22 in 10.0 mi North 6.9 mph - N/A   Scattered Clouds
10:53 PM 35.1 °F 30.1 °F 28.0 °F 76% 30.23 in 10.0 mi North 5.8 mph - N/A   Scattered Clouds
11:53 PM 33.1 °F - 27.0 °F 78% 30.22 in 10.0 mi Calm Calm - N/A   Partly Cloudy